Current Version              Previous Version:    01  02  03  04  05  06  07  08  09  10  11  12  13  14  15  16  17  18  19  20  21  22  23  24  25  26  27  28  29  30  
   31  32  33  34  35  36  37  38  39  40  41  42  43  44  45  46  47  48  49  50  51  52  53  54  55  56  57  58  59  60  

[Printable]
888
ASUS44 KFWD 161410
RWRTX
NORTH TEXAS HOURLY WEATHER ROUNDUP
NATIONAL WEATHER SERVICE FORT WORTH TX
900 AM CDT WED APR 16 2014

NOTE: "FAIR" INDICATES FEW OR NO CLOUDS BELOW 12,000 FEET WITH NO
SIGNIFICANT WEATHER AND/OR OBSTRUCTIONS TO VISIBILITY.

TXZ118-119-161500-
DALLAS/FORT WORTH METROPLEX

CITY           SKY/WX    TMP DP  RH WIND       PRES   REMARKS
DFW AIRPORT    PTSUNNY   51  32  48 S18       30.12S
DALLAS LOVE    PTSUNNY   50  31  48 S17       30.14S
FTW MEACHAM    MOSUNNY   51  33  50 S14       30.10S
DAL-EXECUTIVE  MOSUNNY   49  33  54 S10       30.13R
FTW-ALLIANCE   PTSUNNY   49  32  52 S12G24    30.10R
FTW-NAS-JRB    MOSUNNY   54  28  36 S18       30.15R
FTW-SPINKS     SUNNY     50  32  50 SE18G26   30.13R
ARLINGTON      MOSUNNY   50  31  48 S17G23    30.12S
GRAND PRAIRIE  SUNNY     50  32  50 SE9       30.15
ADDISON        PTSUNNY   50  30  46 S15G25    30.14R
MESQUITE       SUNNY     48  36  61 SE15      30.16R
LANCASTER      MOSUNNY   47  33  57 S9G16     30.16S
$$

TXZ091>094-102>105-117-120-121-131>134-161500-
NORTH CENTRAL TEXAS

CITY           SKY/WX    TMP DP  RH WIND       PRES   REMARKS
SHRMAN/DENISON SUNNY     50  31  48 S15       30.12R
GAINESVILLE    MOSUNNY   49  32  52 S16G23    30.11S
BOWIE          MOSUNNY   50  31  48 SE16G29   30.04F
BRIDGEPORT     MOSUNNY   52  28  39 S12G20    30.09S
DECATUR        MOSUNNY   50  30  46 S17G24    30.08S
DENTON         SUNNY     50  33  52 S13       30.12R
MCKINNEY       MOSUNNY   50  34  54 S16G28    30.13R
GREENVILLE     MOSUNNY   50  36  57 S13G20    30.16S
ROCKWALL       SUNNY     51  35  54 SE15G23   30.14S HAZE
TERRELL        SUNNY     50  34  54 S15       30.17R
WAXAHACHIE     PTSUNNY   46  33  61 SE10G16   30.15S
CLEBURNE       MOSUNNY   46  34  61 S13       30.14S
GRANBURY       SUNNY     53  32  45 SE10      30.11S
$$

TXZ083>090-098>101-113>116-127>130-139>142-154-155-161500-
WESTERN NORTH TEXAS

CITY           SKY/WX    TMP DP  RH WIND       PRES   REMARKS
WICHITA FALLS  MOSUNNY   51  27  39 S25G32    29.99S
WF-KICKAPOO    SUNNY     51  27  39 S21G29    30.02S
VERNON         MOSUNNY   53  24  32 S17G25    29.96R
ABILENE        SUNNY     51  20  29 S22G31    29.96S
ABILENE-DYESS  SUNNY     52  20  28 S30G40    29.93F
BRECKENRIDGE   MOSUNNY   53  24  33 S21G26    30.01S
GRAHAM         MOSUNNY   52  27  38 S15G25    30.01F
MINERAL WELLS  SUNNY     48  31  51 S13       30.06S
STEPHENVILLE   MOSUNNY   48  31  52 S14G21    30.10S
COMANCHE       MOSUNNY   49  30  49 S14       30.06S
BROWNWOOD      MOSUNNY   48  28  46 S13       30.07R
COLEMAN        MOSUNNY   46  27  47 S12G17    30.04S
BRADY            N/A     48  28  46 SE18      30.02S
$$

TXZ143>147-156>162-174-175-161500-
CENTRAL TEXAS

CITY           SKY/WX    TMP DP  RH WIND       PRES   REMARKS
WACO           PTSUNNY   49  34  56 S13G23    30.14R
WACO-TSTC      SUNNY     46  39  76 SE6       30.15S
WACO-MCGREGOR  PTSUNNY   46  34  61 S10       30.15S
HILLSBORO      PTSUNNY   49  34  55 SE16      30.14R
CORSICANA      MOSUNNY   50  36  58 SE16      30.18R
MEXIA          MOSUNNY   47  39  73 SE6       30.17R
HEARNE         PTSUNNY   49  39  68 SE7       30.17S
CAMERON        PTSUNNY   52  37  55 S9        30.16S
TEMPLE         PTSUNNY   46  32  57 SE12        N/A
KILLEEN        PTSUNNY   48  34  57 S14       30.10S
KILLEEN-SKYLRK PTSUNNY   48  30  49 SE12      30.12R
FORT HOOD      PTSUNNY   51  32  48 SE7G16    30.12R
GATESVILLE     PTSUNNY   48  34  57 S6        30.15R
HAMILTON       MOSUNNY   49  32  51 S14       30.09F
LAMPASAS       MOSUNNY   50  35  54 SE9       30.09S
$$

TXZ095>097-106>112-122>126-135>138-148>153-164>167-161500-
EAST TEXAS

CITY           SKY/WX    TMP DP  RH WIND       PRES   REMARKS
PARIS          SUNNY     46  36  66 SE14      30.19R
SULPHUR SPRNGS SUNNY     48  35  59 S12G17    30.19S
CLARKSVILLE    SUNNY     47  36  63 SE12      30.20R
MOUNT PLEASANT SUNNY     46  37  69 S9        30.23R
GILMER         SUNNY     48  36  61 SE10G16   30.22S
MINEOLA        SUNNY     46  37  71 SE5       30.20S
TYLER          SUNNY     48  37  65 SE13      30.19R
LONGVIEW       SUNNY     49  34  56 SE14      30.21R
MARSHALL       SUNNY     47  32  56 SE6       30.24S
ATHENS         SUNNY     46  32  57 SE10G17   30.18R
PALESTINE      SUNNY     49  33  54 SE7G18    30.22R
JACKSONVILLE   SUNNY     46  32  58 SE10G18   30.21S
HENDERSON      SUNNY     47  35  63 S7        30.22S
NACOGDOCHES    SUNNY     45  37  76 SE5       30.22R
LUFKIN         SUNNY     48  38  68 SE9       30.22R
$$

SUPPLEMENTAL OBSERVATIONS (CENTRAL)

CITY           SKY/WX    TMP DP  RH WIND       PRES   REMARKS
CADDO GRASSLND   N/A     48  34  57 S9          N/A
PAT MAYSE LAKE   N/A     46  36  66 SE16        N/A  WCI  40
GREENVILLE       N/A     52  36  54 S10         N/A
CEDAR HILL       N/A     52  32  46 SE13G22     N/A
PALESTINE        N/A     50  34  53 S8G17       N/A
MCGREGOR         N/A     52  32  46 S15         N/A
TEMPLE           N/A     48  36  61 SE7         N/A
$$

SUPPLEMENTAL OBSERVATIONS (WEST)

CITY           SKY/WX    TMP DP  RH WIND       PRES   REMARKS
MILLERS CREEK    N/A     52  25  35 S21G26      N/A
POSSUM KINGDOM   N/A     52  28  40 S16G23      N/A
LBJ GRASSLAND    N/A     52  32  46 SE15        N/A
GRANBURY         N/A     52  32  46 S13         N/A
HAMBY            N/A     52  23  32 S24G33      N/A
IVIE RESERVOIR   N/A     52  27  37 SE16        N/A
COLORADO BEND    N/A     50  32  50 S12         N/A
$$

SUPPLEMENTAL OBSERVATIONS (EAST)

CITY           SKY/WX    TMP DP  RH WIND       PRES   REMARKS
CLARKSVILLE      N/A     48  36  61 SE14        N/A
TEXARKANA        N/A     48  34  57 SE6         N/A
GILMER           N/A     50  36  57 S10         N/A
HENDERSON        N/A     48  36  61 S9          N/A
LUFKIN           N/A     48  34  57 MISG        N/A
N SABINE NF      N/A     45  32  61 MISG        N/A
S SABINE NF      N/A     50  32  50 S6G15       N/A
$$

SUPPLEMENTAL OBSERVATIONS ARE A COLLECTION OF AUTOMATED INSTRUMENTS
THAT ARE MAINTAINED BY A VARIETY OF FEDERAL AND STATE AGENCIES.
CERTAIN ELEMENTS...SUCH AS HUMIDITY VALUES AND SUSTAINED WIND
SPEEDS...MAY BE APPROXIMATED.